Whiteclay, NE

10:24 AM MDT on July 23, 2016 (GMT -0600)
Pine Ridge

Weather History for KIEN - November, 2011

Change the Weather History Date:

Monday, November 7, 2011

  Actual Average Record
Temperature  
Mean Temperature 29 °F 38 °F  
Max Temperature 44 °F 53 °F 84 °F (1999)
Min Temperature 13 °F 24 °F 3 °F (2003)
Degree Days  
Heating Degree Days 36 27  
Month to date heating degree days 207 177  
Since 1 July heating degree days 881 932  
Cooling Degree Days 0 0  
Month to date cooling degree days 0 0  
Year to date cooling degree days 818 717  
Moisture  
Dew Point 19 °F    
Average Humidity 65    
Maximum Humidity 88    
Minimum Humidity 41    
Precipitation  
Precipitation T in 0.02 in 0.03 in (2000)
Month to date precipitation 0.52 0.18  
Year to date precipitation 18.03 16.78  
Sea Level Pressure  
Sea Level Pressure 30.19 in    
Wind  
Wind Speed 4 mph (ENE)    
Max Wind Speed 13 mph    
Max Gust Speed 15 mph    
Visibility 10 miles    
Events      
T = Trace of Precipitation, MM = Missing Value Source: NWS Daily Summary

Daily Weather History Graph

Daily Weather History Graph

Search for Another Location

Airport or City:

Trip Planner

Search our weather history database for the weather conditions in past years. The results will help you decide how hot, cold, wet, or windy it might be!

Date:

Astronomy

Nov. 07, 2011 Rise Set
Actual Time 6:32 AM MST 4:34 PM MST
Civil Twilight 6:02 AM MST 5:04 PM MST
Nautical Twilight 5:28 AM MST 5:38 PM MST
Astronomical Twilight 4:54 AM MST 6:11 PM MST
Moon 2:49 PM MST (11/7) 3:33 AM MST (11/7)
Length of Visible Light 11h 02m
Length of Day
10h 02m
Waxing Gibbous, 92% of the Moon is Illuminated
Nov 7
Waxing Gibbous
Nov 10
Full
Nov 18
Last Quarter
Nov 24
New
Dec 2
First Quarter

Hourly Weather History & Observations

Time (MST) Temp. Windchill Dew Point Humidity Pressure Visibility Wind Dir Wind Speed Gust Speed Precip Events Conditions
12:52 AM 19.0 °F 13.9 °F 14.0 °F 81% 30.14 in 10.0 mi East 3.5 mph - N/A   Clear
1:52 AM 19.0 °F - 14.0 °F 81% 30.13 in 10.0 mi Calm Calm - N/A   Clear
2:52 AM 19.9 °F 14.9 °F 14.0 °F 78% 30.14 in 10.0 mi NE 3.5 mph - N/A   Clear
3:52 AM 18.0 °F - 12.9 °F 81% 30.17 in 10.0 mi Calm Calm - N/A   Clear
4:52 AM 16.0 °F 8.8 °F 12.0 °F 84% 30.19 in 10.0 mi East 4.6 mph - N/A   Clear
5:52 AM 15.1 °F 9.4 °F 12.0 °F 88% 30.22 in 10.0 mi North 3.5 mph - N/A   Clear
6:52 AM 17.1 °F 11.7 °F 12.9 °F 84% 30.25 in 10.0 mi ENE 3.5 mph - N/A   Clear
8:52 AM 28.9 °F - 23.0 °F 78% 30.25 in 10.0 mi Calm Calm - N/A   Clear
9:52 AM 37.9 °F 32.1 °F 19.0 °F 47% 30.23 in 10.0 mi SE 8.1 mph - N/A   Clear
10:52 AM 41.0 °F 37.1 °F 19.0 °F 41% 30.21 in 10.0 mi ESE 5.8 mph - N/A   Mostly Cloudy
11:52 AM 41.0 °F 34.7 °F 24.1 °F 51% 30.21 in 10.0 mi South 10.4 mph - N/A   Overcast
12:52 PM 39.9 °F 37.8 °F 30.9 °F 70% 30.18 in 10.0 mi Variable 3.5 mph - 0.00 in   Overcast
1:52 PM 43.0 °F 40.3 °F 30.0 °F 60% 30.17 in 10.0 mi ENE 4.6 mph - N/A   Overcast
2:52 PM 43.0 °F 40.3 °F 30.0 °F 60% 30.16 in 10.0 mi ENE 4.6 mph - N/A   Overcast
5:52 PM 32.0 °F 24.8 °F 21.0 °F 64% 30.22 in 10.0 mi ENE 8.1 mph - N/A   Clear
6:52 PM 28.0 °F 20.8 °F 19.9 °F 72% 30.24 in 10.0 mi ENE 6.9 mph - N/A   Scattered Clouds
7:52 PM 30.0 °F 24.1 °F 21.0 °F 69% 30.23 in 10.0 mi ENE 5.8 mph - N/A   Overcast
8:52 PM 30.0 °F 26.5 °F 21.0 °F 69% 30.21 in 10.0 mi ENE 3.5 mph - N/A   Overcast
9:52 PM 28.0 °F - 19.9 °F 72% 30.18 in 10.0 mi Calm Calm - N/A   Overcast
10:52 PM 34.0 °F - 18.0 °F 52% 30.14 in 10.0 mi Calm Calm - N/A   Scattered Clouds
11:52 PM 34.0 °F - 18.0 °F 52% 30.14 in 10.0 mi Calm Calm - N/A   Partly Cloudy